TimeEDT,TemperatureF,Dew PointF,Humidity,Sea Level PressureIn,VisibilityMPH,Wind Direction,Wind SpeedMPH,Gust SpeedMPH,PrecipitationIn,Events,Conditions,WindDirDegrees,DateUTC
12:51 AM,46.4,37.4,71,29.61,10.0,West,12.7,-,N/A,,Overcast,270,2012-11-02 04:51:00
1:51 AM,46.6,37.8,71,29.61,10.0,West,12.7,-,N/A,,Overcast,270,2012-11-02 05:51:00
2:51 AM,46.0,37.6,72,29.62,10.0,West,11.5,-,N/A,,Overcast,280,2012-11-02 06:51:00
3:51 AM,47.1,37.9,70,29.62,10.0,West,11.5,-,N/A,,Overcast,270,2012-11-02 07:51:00
4:51 AM,46.9,37.8,70,29.62,10.0,WNW,10.4,17.3,N/A,,Overcast,290,2012-11-02 08:51:00
5:51 AM,47.7,36.7,66,29.62,10.0,West,9.2,-,N/A,,Mostly Cloudy,280,2012-11-02 09:51:00
6:51 AM,48.6,36.3,63,29.62,10.0,West,10.4,-,N/A,,Overcast,270,2012-11-02 10:51:00
7:51 AM,48.6,35.2,60,29.64,10.0,West,12.7,-,N/A,,Overcast,270,2012-11-02 11:51:00
8:51 AM,48.9,35.6,60,29.65,10.0,West,9.2,-,N/A,,Mostly Cloudy,280,2012-11-02 12:51:00
9:51 AM,50.2,34.5,55,29.65,10.0,NW,16.1,-,N/A,,Mostly Cloudy,310,2012-11-02 13:51:00
10:51 AM,52.7,35.2,52,29.64,10.0,NNW,16.1,-,N/A,,Mostly Cloudy,330,2012-11-02 14:51:00
11:51 AM,51.8,35.6,54,29.63,10.0,NW,12.7,-,N/A,,Mostly Cloudy,320,2012-11-02 15:51:00
12:51 PM,51.8,32.2,47,29.62,10.0,West,11.5,-,N/A,,Mostly Cloudy,280,2012-11-02 16:51:00
1:51 PM,52.0,32.0,47,29.61,10.0,West,15.0,23.0,N/A,,Overcast,280,2012-11-02 17:51:00
2:51 PM,51.1,33.1,50,29.61,10.0,West,11.5,-,N/A,,Overcast,280,2012-11-02 18:51:00
3:40 PM,51.8,33.8,50,29.62,10.0,NW,16.1,-,N/A,,Overcast,320,2012-11-02 19:40:00
3:51 PM,52.0,33.1,49,29.62,10.0,NW,11.5,21.9,N/A,,Overcast,320,2012-11-02 19:51:00
4:51 PM,51.8,33.8,50,29.64,10.0,NW,13.8,-,N/A,,Overcast,310,2012-11-02 20:51:00
5:51 PM,51.1,32.0,48,29.66,10.0,WNW,21.9,29.9,N/A,,Overcast,300,2012-11-02 21:51:00
6:51 PM,50.0,35.1,57,29.69,10.0,WNW,16.1,-,N/A,,Overcast,300,2012-11-02 22:51:00
7:51 PM,46.9,33.1,59,29.71,10.0,WNW,16.1,23.0,N/A,,Overcast,290,2012-11-02 23:51:00
8:51 PM,46.9,35.1,63,29.73,10.0,NW,19.6,25.3,N/A,,Overcast,310,2012-11-03 00:51:00
9:51 PM,45.0,39.0,80,29.75,10.0,NW,20.7,28.8,0.00,,Overcast,310,2012-11-03 01:51:00
10:51 PM,45.0,39.9,82,29.75,10.0,WNW,17.3,27.6,N/A,,Overcast,300,2012-11-03 02:51:00
11:51 PM,45.0,36.0,71,29.76,10.0,WNW,16.1,27.6,N/A,,Overcast,300,2012-11-03 03:51:00